{"data":{"norad_id":53680,"epoch":"2026-05-25T02:42:57.924288Z","epoch_age_seconds":55381,"freshness":"FRESH","line1":"1 53680U 22105AJ  26145.11317042 -.00001490  00000+0 -99225-4 0  9995","line2":"2 53680  97.4513  26.1668 0002001  85.2650 274.8806 15.05656696204809","mean_motion":15.05656696,"eccentricity":0.0002001,"inclination_deg":97.4513,"raan_deg":26.1668,"arg_perigee_deg":85.265,"mean_anomaly_deg":274.8806,"bstar":-9.9225e-5,"rev_number":20480,"period_min":95.639331583725,"perigee_km":548.10439651336,"apogee_km":550.8768330848,"semimajor_km":6927.6276147991,"source":"CELESTRAK","updated_at":"2026-05-25T13:38:17.526546Z"}}